This is the latest recevied weather packets stored in our database for station/object EA6AMR-10. If no packets are shown the sender has not sent any weather packets the latest 10 day(s).
| Time | Temp. | Humidity | Pressure | Rain* | Wind** | Luminosity | Snow |
|---|---|---|---|---|---|---|---|
| 1777348018 | 12.22° C | 43% | 1014.5 hPa | - | - | - | - |
| 1777347863 | 12.22° C | 43% | 1014.5 hPa | - | - | - | - |
| 1777346963 | 12.22° C | 43% | 1014.8 hPa | - | - | - | - |
| 1777346063 | 12.22° C | 43% | 1014.8 hPa | - | - | - | - |
| 1777345162 | 12.78° C | 43% | 1014.8 hPa | - | - | - | - |
| 1777344262 | 12.22° C | 43% | 1015.1 hPa | - | - | - | - |
| 1777343368 | 12.22° C | 43% | 1015.2 hPa | - | - | - | - |
| 1777342467 | 12.78° C | 43% | 1015.5 hPa | - | - | - | - |
| 1777341567 | 12.78° C | 43% | 1015.5 hPa | - | - | - | - |
| 1777340667 | 12.78° C | 43% | 1015.5 hPa | - | - | - | - |
| 1777339767 | 12.22° C | 43% | 1015.7 hPa | - | - | - | - |
| 1777338867 | 12.78° C | 43% | 1016 hPa | - | - | - | - |
| 1777337966 | 12.78° C | 42% | 1016.2 hPa | - | - | - | - |
| 1777337066 | 12.78° C | 42% | 1016.4 hPa | - | - | - | - |
| 1777336166 | 13.33° C | 42% | 1016.6 hPa | - | - | - | - |
| 1777335266 | 12.78° C | 42% | 1016.6 hPa | - | - | - | - |
| 1777334366 | 13.33° C | 42% | 1016.6 hPa | - | - | - | - |
| 1777333466 | 13.33° C | 42% | 1016.7 hPa | - | - | - | - |
| 1777332565 | 13.89° C | 42% | 1016.8 hPa | - | - | - | - |
| 1777331665 | 13.89° C | 42% | 1016.9 hPa | - | - | - | - |
| 1777330765 | 13.89° C | 42% | 1016.9 hPa | - | - | - | - |
| 1777329865 | 14.44° C | 42% | 1016.8 hPa | - | - | - | - |
| 1777328965 | 14.44° C | 42% | 1016.9 hPa | - | - | - | - |
| 1777328064 | 14.44° C | 42% | 1017 hPa | - | - | - | - |
| 1777327164 | 15° C | 42% | 1017.2 hPa | - | - | - | - |
* Rain since midnight (hover to see other rain measurements)
** Current wind speed in m/s (hover to see current wind gust speed)